This is the latest recevied weather packets stored in our database for station/object W0AKO. If no packets are shown the sender has not sent any weather packets the latest 10 day(s).
| Time | Temp. | Humidity | Pressure | Rain* | Wind** | Luminosity | Snow |
|---|---|---|---|---|---|---|---|
| 1777950843 | 20° C | 10% | 1010.6 hPa | 0 mm | - | 0 W/m² | - |
| 1777950540 | 20° C | 10% | 1010.6 hPa | 0 mm | - | 0 W/m² | - |
| 1777950236 | 20° C | 10% | 1010.6 hPa | 0 mm | - | 0 W/m² | - |
| 1777949931 | 20° C | 10% | 1010.6 hPa | 0 mm | - | 0 W/m² | - |
| 1777949629 | 20.56° C | 10% | 1010.4 hPa | 0 mm | - | 0 W/m² | - |
| 1777949328 | 20.56° C | 10% | 1010.6 hPa | 0 mm | - | 0 W/m² | - |
| 1777949025 | 20.56° C | 10% | 1010.2 hPa | 0 mm | - | 0 W/m² | - |
| 1777948722 | 20.56° C | 10% | 1010.4 hPa | 0 mm | - | 0 W/m² | - |
| 1777948419 | 21.11° C | 10% | 1010.2 hPa | 0 mm | - | 0 W/m² | - |
| 1777948116 | 21.11° C | 10% | 1010.2 hPa | 0 mm | - | 1 W/m² | - |
| 1777947813 | 21.11° C | 10% | 1010.3 hPa | 0 mm | - | 3 W/m² | - |
| 1777947510 | 21.67° C | 10% | 1009.8 hPa | 0 mm | - | 7 W/m² | - |
| 1777947207 | 21.67° C | 10% | 1009.9 hPa | 0 mm | - | 12 W/m² | - |
| 1777946903 | 21.67° C | 10% | 1009.7 hPa | 0 mm | - | 17 W/m² | - |
| 1777946598 | 22.22° C | 10% | 1009.8 hPa | 0 mm | - | 21 W/m² | - |
| 1777946295 | 22.22° C | 10% | 1009.9 hPa | 0 mm | - | 26 W/m² | - |
| 1777945993 | 22.22° C | 10% | 1009.7 hPa | 0 mm | - | 35 W/m² | - |
| 1777945690 | 22.78° C | 10% | 1010.2 hPa | 0 mm | - | 44 W/m² | - |
| 1777945387 | 22.78° C | 10% | 1009.8 hPa | 0 mm | - | 54 W/m² | - |
| 1777945083 | 23.33° C | 10% | 1009.8 hPa | 0 mm | - | 63 W/m² | - |
| 1777944781 | 23.33° C | 10% | 1009.7 hPa | 0 mm | - | 72 W/m² | - |
| 1777944479 | 22.78° C | 10% | 1009.8 hPa | 0 mm | - | 83 W/m² | - |
| 1777944176 | 22.78° C | 10% | 1009.7 hPa | 0 mm | - | 90 W/m² | - |
| 1777943872 | 22.78° C | 10% | 1009.7 hPa | 0 mm | - | 73 W/m² | - |
| 1777943569 | 22.78° C | 10% | 1010.1 hPa | 0 mm | - | 78 W/m² | - |
* Rain latest hour (hover to see other rain measurements)
** Current wind speed in m/s (hover to see current wind gust speed)